Location: Berlin
(38.3226°N, 75.2177°W)
Time: 14:53:22
(UTC+00:00)

ATLAS 3B R/B - Pass Details

Date: 26 October 2020
Orbit: 1014 x 1181 km, 63.8° (Epoch: 23 November)

Event Time Altitude Azimuth Distance (km) Brightness Sun altitude
Exits shadow 09:36:15 11° 210° (SSW) 2,729 4.6 -21.2°
Maximum altitude 09:42:38 88° 121° (ESE) 1,020 2.5 -19.9°
Drops below altitude 10° 09:49:16 10° 33° (NNE) 2,826 5.3 -18.6°
Sets 09:51:55 0° 33° (NNE) 3,796 6.0 -18.1°
